DMSP 5D-2 F6 DEB, 40915

Orbit data source: Space-Track

DMSP 5D-2 F6 DEB, 40915 is space debris in SSO originally from a launch on Tue, 21 Dec 1982 UTC launched from the Air Force Western Test Range (AFWTR). Debris objects in space refer to the collection of defunct objects orbiting the Earth. Examples of debris include non-operational satellites, rocket bodies, and fragments generated from explosions, collisions, or faulty payload assembly.

Loading next visibility...
DMSP 5D-2 F6 DEB details
Identifier
40915, 1982-118H
Orbit
SSO
Last TLE update1 day ago
Origin
Flag of USUSAF SMC (US)
ManufacturerUnknown
MissionSpacecraft
Bus & MotorUnknown
MassUnknown
Launch date (UTC)
1982-12-21 (42 years ago)
Launch vehicleUnknown
Launch site
Air Force Western Test Range (AFWTR)
Object type
Payload
Rocket body
Debris
Shape & HBRUnknown
Radar Cross SectionSmall (<0.1 m²)

Expand to show TLE details & history

TLE from 1 day ago
0 DMSP 5D-2 F6 DEB
1 40915U 82118H   24360.39937866  .00066350  00000-0  91284-2 0  9991
2 40915  98.4097 214.5860 0007025 124.7293 235.4579 14.77926358461307
Epoch: 2024-12-25T09:35Z
Definitive object data (Epoch: 2024-12-25T09:35:06.316Z)
Latitude0.00002°
Longitude-23.584°
Altitude641.677 km
Speed7.536 km/s
True Right ascension14h 18m 20s
True Declination0° 00' 00"
Sunlit
Object was in daylight at TLE epoch
Visualization TLE readout
Latitude39.80605°
Longitude-29.55504°
Altitude640.385 km
Speed7.542 km/s
Apparent Right ascension17h 24m 55s
Apparent Declination4° 03' 37"
Sunlit
Object is in daylight
Visualization observer readout
Local Sidereal Time09:29:25
Azimuth67.411° ENE
Elevation-18.906°
Doppler factor1
Orbital elements
Apogee altitude637.87 km
Perigee altitude628.019 km
Semi-major axis7,011.081 km
Eccentricity0.0007025
Inclination98.4097°
RAAN214.586°
Arg. of periapsis124.7293°
True anomaly235.39162°
Mean anomaly235.4579°
Eccentric anomaly235.42476°
Mean motion3.69714 °/min
BSTAR0.0091284
Orbital period97.37 mins
Loading maneuver chart data...
Loading historical data...
Loading historical data...
Loading historical data...
Loading historical data...
Loading historical data...
Loading historical data...
Loading historical data...

DMSP 5D-2 F6 DEB Visibility forecast

Observer location: undefined°, undefined

Span
Click to sort rows by Start time (UTC) header in descending order
Start Az.
Max El. time (UTC)
Max El. Az.
Max El.
End time (UTC)
End Az.
4 mins2024-12-26 13:22:17.401Z98.285° ESE2024-12-26 13:24:17.401Z68.371° E16.195°2024-12-26 13:26:17.401Z36.614° NE
6 mins2024-12-26 14:58:17.401Z202.07° SSW2024-12-26 15:00:17.401Z251.72° W34.494°2024-12-26 15:04:17.401Z331.277° NNW
5 mins2024-12-27 02:48:17.401Z51.679° ENE2024-12-27 02:50:17.401Z96.098° ESE27.803°2024-12-27 02:53:17.401Z153.975° SSE
5 mins2024-12-27 04:24:17.401Z331.787° NNW2024-12-27 04:26:17.401Z297.605° NW20.545°2024-12-27 04:29:17.401Z247.946° W
|